Showing default

PVSAT, 52894

Orbit data source: Space-Track

PVSAT, 52894 is a payload satellite owned by KARI (KR) in SSO that was launched on Tue, 21 Jun 2022 UTC via an NURI launch vehicle from the Naro Space Center, South Korea (NSC). Payload-class satellites include a variety of spacecraft equipped with specific instruments for various scientific and technological missions. These include communications satellites like Starlink; space stations such as the ISS; scientific satellites like the Hubble; Earth observation satellites from companies like Planet Labs, Umbra, and HawkEye 360; GPS; miniature CubeSats for education and research; and military/defense satellites.

Loading next visibility...
Identifier
52894, 2022-065A
Orbit
SSO
Last TLE update
21 hours ago
Origin
Manufacturer
KARI
Mission
Operational Civil Technology
Bus & Motor
Unknown
Mass
180 kg wet, 162 kg dry
Launch date (UTC)
2022-06-21 (3 years ago)
Launch vehicle
NURI
Launch site
Naro Space Center, South Korea (NSC)
Object type
Payload
Rocket body
Debris
Shape & HBR
Box, 0.5 m
Radar Cross Section
0.720 m², Medium (>0.1 m² and < 1m²)

Expand to show TLE details & history

TLE from 21 hours ago
0 PVSAT
1 52894U 22065A   25187.36429876  .00000228  00000-0  58240-4 0  9996
2 52894  98.1787 325.7806 0009766  23.1459 337.0179 14.59187845161913
Epoch: 2025-07-06T08:44Z
TLE epoch observation values (Epoch: 2025-07-06T08:44:35.412Z)
Latitude
-0.00002°
Longitude
-89.956°
Altitude
692.422 km
Speed
7.513 km/s
True Right ascension
21h 43m 07s
True Declination
0° 00' 00"
Sunlit
Object was in full shadow at epoch
Visualization orbit readout
Latitude
-38.78927°
Longitude
-82.48788°
Altitude
707.07 km
Speed
7.503 km/s
Apparent Right ascension
01h 43m 38s
Apparent Declination
-56° 59' 11"
Sunlit
Object is in full shadow
Visualization observer readout
Local Sidereal Time
17:58:54
Azimuth
134.997° SE
Elevation
-46.257°
Doppler factor
1
Orbital elements
Apogee altitude
699.784 km
Perigee altitude
685.973 km
Semi-major axis
7,071.016 km
Eccentricity
0.00098
Inclination
98.1787°
RAAN
325.7806°
Arg. of periapsis
23.1459°
True anomaly
Unknown
Mean anomaly
337.0179°
Eccentric anomaly
Unknown
Mean motion
3.65023 °/min
Orbital period
98.62 mins
BSTAR
0.00005824
Loading maneuver chart data...
Loading SW <> Apogee altitude chart data...
Loading historical data...
Loading historical data...
Loading historical data...
Loading historical data...
Loading historical data...
Loading historical data...
Loading historical data...

PVSAT Visibility forecast

Observer location: undefined°, undefined°

Span
Click to sort rows by Start time (UTC) header in descending order
Start Az.
Max El. time (UTC)
Max El. Az.
Max El.
End time (UTC)
End Az.
4 mins2025-07-07 07:57:32.572Z89.718° E2025-07-07 07:59:32.572Z61.823° ENE14.57°2025-07-07 08:01:32.572Z34.585° NE
7 mins2025-07-07 09:33:32.572Z186.529° SSW2025-07-07 09:36:32.572Z258.152° W39.944°2025-07-07 09:40:32.572Z336.627° NNW
7 mins2025-07-07 21:32:32.572Z39.804° NE2025-07-07 21:35:32.572Z98.116° ESE30.746°2025-07-07 21:39:32.572Z163.159° S
5 mins2025-07-07 23:10:32.572Z331.778° NNW2025-07-07 23:12:32.572Z300.353° NW20.856°2025-07-07 23:15:32.572Z252.007° W
|